Weather observations for the past three days for
Palm Springs, Jacqueline Cochran Regional Airport
Imperial (Metric)
Date Time (pdt) Wind (mph) Vis. (mi.) Weather Sky Cond. Temperature (ºF) Relative Humidity Wind Chill (°F) Heat Index (°F) Pressure Precipitation (in)
Air Dwpt 6 hour altimeter (in) sea level (mb) 1 hr 3 hr 6 hr
Max. Min.
20 16:52 SE 9 10.00 Fair CLR 114.1 54 115 104 14% 113 29.67 1005.2
20 15:52 SE 7 10.00 Fair CLR 115 48.9 11% 111 29.7 1006.0
20 14:52 SE 7 10.00 Fair CLR 114.1 51.1 13% 111 29.72 1007.0
20 13:52 S 7 10.00 Fair CLR 111.9 53.1 14% 110 29.75 1007.7
20 12:52 SE 15 10.00 Fair CLR 109.9 52 15% 108 29.78 1008.7
20 11:52 SE 12 G 18 10.00 Fair CLR 108 60.1 21% 110 29.79 1009.2
20 10:52 SE 13 10.00 Fair CLR 104 59 104 91 23% 104 29.8 1009.5
20 09:52 S 8 10.00 Fair CLR 102 61 26% 103 29.8 1009.5
20 08:52 SE 8 10.00 Fair CLR 99 63 31% 101 29.8 1009.5
20 07:52 E 6 10.00 Fair CLR 97 48 19% 93 29.79 1009.3
20 06:52 NW 5 10.00 Fair CLR 93.9 42.1 17% 90 29.77 1008.6
20 05:52 NW 8 10.00 Fair CLR 91.9 41 17% 88 29.76 1008.0
20 04:52 NW 9 10.00 Fair CLR 95 39 100 95 14% 91 29.74 1007.6
20 03:52 NW 9 10.00 Fair CLR 97 39 13% 92 29.74 1007.5
20 02:52 NW 16 10.00 Fair CLR 99 39.9 13% 94 29.73 1007.2
20 01:52 NW 15 10.00 Fair CLR 98.1 42.1 15% 94 29.74 1007.5
20 00:52 N 14 10.00 Fair CLR 98.1 42.1 15% 94 29.75 1007.8
19 22:52 N 14 10.00 Fair CLR 100 42.1 115 100 14% 96 29.75 1007.8
19 21:52 N 16 10.00 Fair CLR 102 43 13% 98 29.74 1007.4
19 20:52 NW 13 10.00 Fair CLR 104 44.1 13% 100 29.73 1007.0
19 19:52 NW 12 10.00 Fair CLR 108 46.9 13% 104 29.7 1006.1
19 18:52 W 13 10.00 Fair CLR 111 55 16% 110 29.68 1005.4
19 17:52 NW 5 10.00 Fair CLR 114.1 54 14% 113 29.68 1005.3
19 16:52 Calm 10.00 Fair CLR 113 57 114.1 102 16% 113 29.69 1005.8
19 15:52 N 5 10.00 Fair CLR 113 57.9 17% 114 29.72 1006.7
19 14:52 Calm 10.00 Fair CLR 111.9 60.1 19% 114 29.75 1007.7
19 13:52 S 6 10.00 Fair CLR 109 59 20% 110 29.78 1008.8
19 12:52 SE 8 10.00 Fair CLR 108 64 24% 112 29.81 1009.7
19 11:52 SE 13 10.00 Fair CLR 105.1 63 25% 108 29.83 1010.4
19 10:52 SE 16 G 22 10.00 Fair CLR 102 66 102.9 81 31% 107 29.85 1011.1
19 09:52 SE 17 G 24 10.00 Fair CLR 100.9 64.9 31% 105 29.85 1011.3
19 08:52 Calm 10.00 Fair CLR 99 54 22% 97 29.84 1010.9
19 07:52 Calm 9.00 Fair CLR 91.9 57.9 32% 91 29.83 1010.6
19 06:52 Calm 10.00 Fair CLR 86 55.9 36% 85 29.82 1010.1
19 05:52 Calm 10.00 Fair CLR 82.9 53.1 36% 82 29.8 1009.5
19 04:52 E 3 10.00 Fair CLR 84 52 98.1 84 33% 82 29.8 1009.3
19 03:52 Calm 10.00 Fair CLR 91 50 25% 88 29.78 1008.8
19 02:52 NW 7 10.00 Fair CLR 93 48.9 22% 90 29.78 1008.6
19 01:52 NW 8 10.00 Fair CLR 95 46.9 19% 91 29.78 1008.8
19 00:52 NW 8 10.00 Fair CLR 95 44.1 17% 91 29.79 1009.0
18 23:52 NW 6 10.00 Fair CLR 97 41 14% 93 29.79 1009.2
18 22:52 NW 6 10.00 Fair CLR 97 45 109.9 91 17% 93 29.79 1009.0
18 21:52 NW 9 10.00 Fair CLR 102 43 13% 98 29.77 1008.4
18 20:52 Vrbl 3 10.00 Fair CLR 102.9 54 20% 101 29.75 1007.9
18 19:52 Calm 10.00 Fair CLR 100.9 70 37% 109 29.72 1006.8
18 18:52 Calm 10.00 Fair CLR 108 66.9 27% 115 29.72 1006.6
18 17:52 S 5 10.00 Fair CLR 109 66 25% 115 29.71 1006.4
18 16:52 S 7 10.00 Fair CLR 109 66.9 109.9 100.9 26% 116 29.73 1007.0
18 15:52 Vrbl 7 10.00 Fair CLR 109 66 25% 115 29.76 1007.9
18 14:52 SE 12 10.00 Fair CLR 109 66 25% 115 29.78 1008.6
18 13:52 SE 18 G 24 10.00 Fair CLR 107.1 66.9 27% 113 29.81 1009.8
18 12:52 SE 20 G 26 10.00 Fair CLR 106 66 28% 111 29.84 1010.7
18 11:52 SE 21 G 28 10.00 Fair and Breezy CLR 104 64.9 28% 108 29.86 1011.4
18 10:52 SE 15 G 20 10.00 Fair CLR 100.9 63 100.9 79 29% 103 29.86 1011.3
18 09:52 SE 15 10.00 Fair CLR 99 64 32% 102 29.85 1011.0
18 08:52 Calm 10.00 Fair CLR 98.1 60.1 28% 98 29.83 1010.4
18 07:52 N 5 10.00 Fair CLR 93.9 60.1 32% 94 29.82 1010.0
18 06:52 Calm 10.00 Fair CLR 86 64 48% 87 29.8 1009.4
18 05:52 SW 3 10.00 Fair CLR 80.1 62.1 54% 81 29.79 1009.1
18 04:52 N 3 10.00 Fair CLR 84 60.1 96.1 82.9 44% 84 29.77 1008.5
18 03:52 NW 3 10.00 Fair CLR 89.1 57.9 35% 88 29.77 1008.4
18 02:52 NW 3 10.00 Fair CLR 91 59 34% 90 29.77 1008.5
18 01:52 N 3 10.00 Fair CLR 91.9 57.9 32% 91 29.77 1008.3
18 00:52 Calm 10.00 Fair CLR 91.9 59 33% 91 29.77 1008.5
17 23:52 N 3 10.00 Fair CLR 93.9 59 31% 93 29.77 1008.5
17 22:52 N 3 10.00 Fair CLR 91.9 60.1 108 91 34% 92 29.76 1008.1
17 21:52 N 5 10.00 Fair CLR 93 61 34% 93 29.75 1007.7
17 20:52 Calm 10.00 Fair CLR 93.9 60.1 32% 94 29.73 1007.1
17 19:52 S 6 10.00 Fair CLR 98.1 59 27% 98 29.71 1006.5
17 18:52 SE 6 10.00 Fair CLR 104 57.9 22% 104 29.7 1005.9
17 17:52 SE 9 10.00 Fair CLR 107.1 55 18% 106 29.7 1005.9
Date Time (pdt) Wind (mph) Vis. (mi.) Weather Sky Cond. Air Dwpt Max. Min. Relative Humidity Wind Chill (°F) Heat Index (°F) altimeter (in) sea level (mb) 1 hr 3 hr 6 hr
6 hour
Temperature (ºF) Pressure Precipitation (in)